Weather History for Montpelier, VT

Change the Weather History Date:

Monday, February 13, 2012

  Actual Average Record
Temperature  
Mean Temperature 20 °F 19 °F  
Max Temperature 31 °F 30 °F 53 °F (1984)
Min Temperature 9 °F 9 °F -29 °F (1967)
Degree Days  
Heating Degree Days 45 46  
Month to date heating degree days 561 608  
Since 1 July heating degree days 4502 5253  
Moisture  
Dew Point 10 °F    
Average Humidity 62    
Maximum Humidity 88    
Minimum Humidity 36    
Precipitation  
Precipitation 0.01 in 0.08 in 1.05 in (1966)
Month to date precipitation 0.11 0.99  
Year to date precipitation 2.39 3.44  
Sea Level Pressure  
Sea Level Pressure 29.83 in    
Wind  
Wind Speed 5 mph (NW)    
Max Wind Speed 20 mph    
Max Gust Speed 28 mph    
Visibility 7 miles    
Events Snow    
T = Trace of Precipitation, MM = Missing Value Source: NWS Daily Summary

Daily Weather History Graph

Daily Weather History Graph

Search for Another Location

Airport:

Trip Planner

Search our weather history database for the weather conditions in past years. The results will help you decide how hot, cold, wet, or windy it might be!

Date:

Astronomy

Feb. 13, 2012 Rise Set
Actual Time 6:53 AM EST 5:16 PM EST
Civil Twilight 6:23 AM EST 5:46 PM EST
Nautical Twilight 5:49 AM EST 6:20 PM EST
Astronomical Twilight 5:15 AM EST 6:53 PM EST
Moon No Moon Rise 9:32 AM EST (2/13)
Length of Visible Light 11h 22m
Length of Day
10h 22m
Waning Gibbous, 62% of the Moon is Illuminated
Feb 13
Waning Gibbous
Feb 14
Last Quarter
Feb 21
New
Feb 29
First Quarter
Mar 8
Full

Hourly Weather History & Observations

Time (EST) Temp. Windchill Dew Point Humidity Pressure Visibility Wind Dir Wind Speed Gust Speed Precip Events Conditions
12:51 AM 9.0 °F - 1.9 °F 73% 29.85 in 10.0 mi Calm Calm - N/A   Overcast
1:51 AM 10.9 °F - 1.0 °F 64% 29.82 in 10.0 mi Calm Calm - N/A   Overcast
2:51 AM 10.9 °F - 1.9 °F 67% 29.81 in 10.0 mi Calm Calm - N/A   Overcast
3:51 AM 10.9 °F - 3.9 °F 73% 29.81 in 10.0 mi Calm Calm - N/A   Overcast
4:51 AM 10.9 °F - 6.1 °F 81% 29.81 in 6.0 mi Calm Calm - 0.00 in Snow Light Snow
5:11 AM 12.2 °F - 6.8 °F 79% 29.72 in 2.5 mi Calm Calm - 0.00 in Snow Light Snow
5:51 AM 12.9 °F - 9.0 °F 84% 29.81 in 2.5 mi Calm Calm - 0.00 in Snow Light Snow
6:51 AM 12.0 °F - 9.0 °F 88% 29.82 in 2.0 mi Calm Calm - 0.00 in Snow Light Snow
7:16 AM 12.2 °F 6.1 °F 8.6 °F 85% 29.75 in 1.2 mi ESE 3.5 mph - 0.00 in Snow Light Snow
7:21 AM 12.2 °F 6.1 °F 10.4 °F 92% 29.75 in 0.8 mi East 3.5 mph - 0.01 in Snow Light Snow
7:47 AM 14.0 °F 8.2 °F 10.4 °F 86% 29.76 in 1.2 mi SE 3.5 mph - 0.01 in Snow Light Snow
7:51 AM 14.0 °F 8.2 °F 10.9 °F 88% 29.84 in 1.5 mi ESE 3.5 mph - 0.01 in Snow Light Snow
8:10 AM 15.8 °F 8.6 °F 12.2 °F 86% 29.76 in 2.0 mi SE 4.6 mph - 0.00 in Snow Light Snow
8:27 AM 15.8 °F - 12.2 °F 86% 29.77 in 4.0 mi Calm Calm - 0.00 in Snow Light Snow
8:51 AM 17.1 °F 10.0 °F 12.9 °F 84% 29.85 in 8.0 mi ENE 4.6 mph - 0.00 in   Overcast
9:51 AM 19.9 °F 12.1 °F 12.9 °F 74% 29.85 in 10.0 mi ENE 5.8 mph - N/A   Mostly Cloudy
10:51 AM 23.0 °F 13.9 °F 10.0 °F 58% 29.84 in 8.0 mi WNW 8.1 mph 18.4 mph N/A   Mostly Cloudy
11:51 AM 26.1 °F 13.1 °F 10.9 °F 53% 29.83 in 10.0 mi WNW 17.3 mph 27.6 mph N/A   Overcast
12:51 PM 28.0 °F 18.1 °F 10.9 °F 49% 29.82 in 10.0 mi WNW 11.5 mph 25.3 mph N/A   Mostly Cloudy
1:51 PM 30.0 °F 19.5 °F 8.1 °F 40% 29.81 in 10.0 mi WNW 13.8 mph 26.5 mph N/A   Partly Cloudy
2:51 PM 30.0 °F 23.2 °F 7.0 °F 38% 29.82 in 10.0 mi WNW 6.9 mph 21.9 mph N/A   Partly Cloudy
3:51 PM 30.0 °F 22.4 °F 8.1 °F 40% 29.85 in 10.0 mi NNW 8.1 mph - N/A   Clear
4:51 PM 28.9 °F 22.8 °F 8.1 °F 41% 29.87 in 10.0 mi NNW 5.8 mph - N/A   Clear
5:51 PM 26.1 °F 21.9 °F 9.0 °F 49% 29.89 in 10.0 mi North 3.5 mph - N/A   Clear
6:51 PM 24.1 °F - 12.0 °F 60% 29.91 in 10.0 mi Calm Calm - N/A   Overcast
7:51 PM 23.0 °F - 12.9 °F 65% 29.92 in 10.0 mi Calm Calm - N/A   Overcast
8:51 PM 30.0 °F 22.4 °F 16.0 °F 56% 29.91 in 10.0 mi WSW 8.1 mph - N/A   Overcast
9:51 PM 30.0 °F 21.7 °F 16.0 °F 56% 29.91 in 10.0 mi SW 9.2 mph - N/A   Mostly Cloudy
10:51 PM 27.0 °F - 14.0 °F 58% 29.93 in 10.0 mi Calm Calm - N/A   Clear
11:51 PM 30.0 °F 22.4 °F 16.0 °F 56% 29.95 in 10.0 mi WSW 8.1 mph - N/A   Overcast